Time,TemperatureF,DewpointF,PressureIn,WindDirection,WindDirectionDegrees,WindSpeedMPH,WindSpeedGustMPH,Humidity,HourlyPrecipIn,Conditions,Clouds,dailyrainin,SoftwareType,DateUTC
2014-01-04 00:12:00,13.9,7.0,30.16,SE,139,7.0,17.0,75,0.00,,,0.00,weatherlink.com 1.10,2014-01-04 05:12:00,
2014-01-04 00:27:00,14.1,8.0,30.16,SSW,195,8.0,20.0,75,0.00,,,0.00,weatherlink.com 1.10,2014-01-04 05:27:00,
2014-01-04 00:43:00,14.1,7.0,30.15,SSE,158,8.0,18.0,74,0.00,,,0.00,weatherlink.com 1.10,2014-01-04 05:43:00,
2014-01-04 00:58:00,14.1,8.0,30.14,SE,135,7.0,16.0,75,0.00,,,0.00,weatherlink.com 1.10,2014-01-04 05:58:00,
2014-01-04 01:13:00,14.1,8.0,30.13,SE,129,6.0,17.0,75,0.00,,,0.00,weatherlink.com 1.10,2014-01-04 06:13:00,
2014-01-04 01:28:00,14.3,8.0,30.13,South,171,7.0,16.0,75,0.00,,,0.00,weatherlink.com 1.10,2014-01-04 06:28:00,
2014-01-04 01:43:00,14.4,8.0,30.13,SE,131,7.0,16.0,75,0.00,,,0.00,weatherlink.com 1.10,2014-01-04 06:43:00,
2014-01-04 01:58:00,14.7,8.0,30.12,ESE,121,10.0,20.0,75,0.00,,,0.00,weatherlink.com 1.10,2014-01-04 06:58:00,
2014-01-04 02:13:00,14.9,8.0,30.12,SSE,158,10.0,17.0,75,0.00,,,0.00,weatherlink.com 1.10,2014-01-04 07:13:00,
2014-01-04 02:28:00,14.9,8.0,30.12,SE,142,12.0,17.0,75,0.00,,,0.00,weatherlink.com 1.10,2014-01-04 07:28:00,
2014-01-04 02:43:00,15.0,8.0,30.12,SSE,152,10.0,19.0,75,0.00,,,0.00,weatherlink.com 1.10,2014-01-04 07:43:00,
2014-01-04 03:13:00,15.1,9.0,30.11,ESE,103,9.0,20.0,75,0.00,,,0.00,weatherlink.com 1.10,2014-01-04 08:13:00,
2014-01-04 03:28:00,15.2,9.0,30.11,SSE,158,14.0,18.0,75,0.00,,,0.00,weatherlink.com 1.10,2014-01-04 08:28:00,
2014-01-04 03:43:00,15.3,9.0,30.10,South,177,8.0,17.0,75,0.00,,,0.00,weatherlink.com 1.10,2014-01-04 08:43:00,
2014-01-04 03:59:00,15.4,9.0,30.09,SSE,155,8.0,14.0,75,0.00,,,0.00,weatherlink.com 1.10,2014-01-04 08:59:00,
2014-01-04 04:13:00,15.7,9.0,30.09,SE,143,5.0,14.0,75,0.00,,,0.00,weatherlink.com 1.10,2014-01-04 09:13:00,
2014-01-04 04:43:00,16.5,9.0,30.07,South,173,8.0,16.0,73,0.00,,,0.00,weatherlink.com 1.10,2014-01-04 09:43:00,
2014-01-04 04:58:00,16.8,10.0,30.07,SSE,156,7.0,17.0,73,0.00,,,0.00,weatherlink.com 1.10,2014-01-04 09:58:00,
2014-01-04 05:13:00,17.1,10.0,30.06,SE,139,6.0,16.0,72,0.00,,,0.00,weatherlink.com 1.10,2014-01-04 10:13:00,
2014-01-04 05:28:00,17.5,10.0,30.06,SSE,158,4.0,15.0,71,0.00,,,0.00,weatherlink.com 1.10,2014-01-04 10:28:00,
2014-01-04 05:43:00,18.2,10.0,30.05,SSE,151,11.0,15.0,70,0.00,,,0.00,weatherlink.com 1.10,2014-01-04 10:43:00,
2014-01-04 05:58:00,18.9,10.0,30.05,SSW,201,8.0,19.0,69,0.00,,,0.00,weatherlink.com 1.10,2014-01-04 10:58:00,
2014-01-04 06:13:00,19.1,10.0,30.04,SSE,158,7.0,18.0,68,0.00,,,0.00,weatherlink.com 1.10,2014-01-04 11:13:00,
2014-01-04 06:28:00,19.3,10.0,30.04,SSW,208,16.0,18.0,68,0.00,,,0.00,weatherlink.com 1.10,2014-01-04 11:28:00,
2014-01-04 06:43:00,19.7,10.0,30.04,SSW,194,12.0,22.0,67,0.00,,,0.00,weatherlink.com 1.10,2014-01-04 11:43:00,
2014-01-04 06:58:00,20.0,11.0,30.04,South,187,16.0,18.0,67,0.00,,,0.00,weatherlink.com 1.10,2014-01-04 11:58:00,
2014-01-04 07:13:00,20.4,11.0,30.03,SSW,201,10.0,22.0,67,0.00,,,0.00,weatherlink.com 1.10,2014-01-04 12:13:00,
2014-01-04 07:29:00,20.6,11.0,30.02,SSW,204,12.0,20.0,67,0.00,,,0.00,weatherlink.com 1.10,2014-01-04 12:29:00,
2014-01-04 07:44:00,20.9,11.0,30.02,SSE,163,17.0,23.0,67,0.00,,,0.00,weatherlink.com 1.10,2014-01-04 12:44:00,
2014-01-04 07:59:00,21.1,12.0,30.02,South,187,17.0,25.0,68,0.00,,,0.00,weatherlink.com 1.10,2014-01-04 12:59:00,
2014-01-04 08:14:00,21.3,12.0,30.02,SSE,148,15.0,19.0,68,0.00,,,0.00,weatherlink.com 1.10,2014-01-04 13:14:00,
2014-01-04 08:29:00,21.4,12.0,30.01,SSW,200,9.0,22.0,68,0.00,,,0.00,weatherlink.com 1.10,2014-01-04 13:29:00,
2014-01-04 08:44:00,21.6,13.0,30.01,SSW,198,10.0,24.0,68,0.00,,,0.00,weatherlink.com 1.10,2014-01-04 13:44:00,
2014-01-04 08:59:00,21.8,13.0,30.01,SSE,155,12.0,21.0,68,0.00,,,0.00,weatherlink.com 1.10,2014-01-04 13:59:00,
2014-01-04 09:14:00,22.1,13.0,30.02,SSE,160,11.0,21.0,68,0.00,,,0.00,weatherlink.com 1.10,2014-01-04 14:14:00,
2014-01-04 09:29:00,22.5,13.0,30.03,SSE,160,14.0,20.0,68,0.00,,,0.00,weatherlink.com 1.10,2014-01-04 14:29:00,
2014-01-04 09:44:00,23.0,14.0,30.02,SSE,147,11.0,23.0,67,0.00,,,0.00,weatherlink.com 1.10,2014-01-04 14:44:00,
2014-01-04 09:59:00,23.7,14.0,30.02,South,171,12.0,20.0,67,0.00,,,0.00,weatherlink.com 1.10,2014-01-04 14:59:00,
2014-01-04 10:29:00,25.6,15.0,30.03,SSW,198,13.0,22.0,65,0.00,,,0.00,weatherlink.com 1.10,2014-01-04 15:29:00,
2014-01-04 10:44:00,26.3,16.0,30.04,SSE,167,13.0,17.0,64,0.00,,,0.00,weatherlink.com 1.10,2014-01-04 15:44:00,
2014-01-04 10:59:00,27.1,16.0,30.04,South,181,9.0,16.0,64,0.00,,,0.00,weatherlink.com 1.10,2014-01-04 15:59:00,
2014-01-04 11:14:00,27.8,17.0,30.04,SW,221,16.0,19.0,63,0.00,,,0.00,weatherlink.com 1.10,2014-01-04 16:14:00,
2014-01-04 11:29:00,28.4,17.0,30.03,SSE,158,14.0,18.0,63,0.00,,,0.00,weatherlink.com 1.10,2014-01-04 16:29:00,
2014-01-04 11:44:00,28.9,18.0,30.03,SSW,204,17.0,25.0,63,0.00,,,0.00,weatherlink.com 1.10,2014-01-04 16:44:00,
2014-01-04 11:59:00,28.6,18.0,30.02,SW,231,12.0,23.0,64,0.00,,,0.00,weatherlink.com 1.10,2014-01-04 16:59:00,
2014-01-04 12:14:00,28.7,18.0,30.01,SSW,197,16.0,24.0,65,0.00,,,0.00,weatherlink.com 1.10,2014-01-04 17:14:00,
2014-01-04 12:29:00,29.0,19.0,30.00,SSW,193,7.0,20.0,65,0.00,,,0.00,weatherlink.com 1.10,2014-01-04 17:29:00,
2014-01-04 12:44:00,29.7,19.0,29.99,South,180,11.0,18.0,65,0.00,,,0.00,weatherlink.com 1.10,2014-01-04 17:44:00,
2014-01-04 12:59:00,30.9,20.0,29.98,South,169,13.0,21.0,64,0.00,,,0.00,weatherlink.com 1.10,2014-01-04 17:59:00,
2014-01-04 13:14:00,31.3,20.0,29.99,SSW,201,11.0,24.0,64,0.00,,,0.00,weatherlink.com 1.10,2014-01-04 18:14:00,
2014-01-04 13:29:00,30.7,20.0,29.98,SSW,210,15.0,20.0,65,0.00,,,0.00,weatherlink.com 1.10,2014-01-04 18:29:00,
2014-01-04 13:44:00,31.1,21.0,29.99,SSW,194,14.0,22.0,65,0.00,,,0.00,weatherlink.com 1.10,2014-01-04 18:44:00,
2014-01-04 13:59:00,31.3,21.0,29.98,SSW,205,17.0,24.0,65,0.00,,,0.00,weatherlink.com 1.10,2014-01-04 18:59:00,
2014-01-04 14:14:00,31.6,21.0,29.98,South,177,25.0,25.0,66,0.00,,,0.00,weatherlink.com 1.10,2014-01-04 19:14:00,
2014-01-04 14:29:00,32.0,21.0,29.97,SSW,207,13.0,20.0,65,0.00,,,0.00,weatherlink.com 1.10,2014-01-04 19:29:00,
2014-01-04 14:45:00,32.3,21.0,29.97,SSW,203,13.0,23.0,64,0.00,,,0.00,weatherlink.com 1.10,2014-01-04 19:45:00,
2014-01-04 15:00:00,32.3,22.0,29.98,SW,217,13.0,18.0,65,0.00,,,0.00,weatherlink.com 1.10,2014-01-04 20:00:00,
2014-01-04 15:45:00,31.8,22.0,29.99,SSE,155,10.0,15.0,67,0.00,,,0.00,weatherlink.com 1.10,2014-01-04 20:45:00,
2014-01-04 16:00:00,31.7,22.0,29.99,SW,219,15.0,18.0,67,0.00,,,0.00,weatherlink.com 1.10,2014-01-04 21:00:00,
2014-01-04 16:15:00,31.6,22.0,30.00,South,191,8.0,19.0,68,0.00,,,0.00,weatherlink.com 1.10,2014-01-04 21:15:00,
2014-01-04 16:30:00,31.6,22.0,30.00,South,181,3.0,11.0,68,0.00,,,0.00,weatherlink.com 1.10,2014-01-04 21:30:00,
2014-01-04 16:45:00,31.8,23.0,30.00,SSE,166,5.0,12.0,69,0.00,,,0.00,weatherlink.com 1.10,2014-01-04 21:45:00,
2014-01-04 17:00:00,31.9,23.0,30.00,SSW,193,7.0,10.0,69,0.00,,,0.00,weatherlink.com 1.10,2014-01-04 22:00:00,
2014-01-04 17:15:00,31.8,23.0,30.00,SSE,153,7.0,12.0,70,0.00,,,0.00,weatherlink.com 1.10,2014-01-04 22:15:00,
2014-01-04 17:30:00,31.8,23.0,30.01,SSW,198,3.0,10.0,70,0.00,,,0.00,weatherlink.com 1.10,2014-01-04 22:30:00,
2014-01-04 17:45:00,32.0,23.0,30.01,SSW,194,6.0,12.0,70,0.00,,,0.00,weatherlink.com 1.10,2014-01-04 22:45:00,
2014-01-04 18:00:00,32.0,24.0,30.01,SSW,201,6.0,8.0,71,0.00,,,0.00,weatherlink.com 1.10,2014-01-04 23:00:00,
2014-01-04 18:15:00,31.9,24.0,30.02,SSW,205,5.0,10.0,72,0.00,,,0.00,weatherlink.com 1.10,2014-01-04 23:15:00,
2014-01-04 18:45:00,32.4,24.0,30.02,SSW,198,4.0,9.0,70,0.00,,,0.00,weatherlink.com 1.10,2014-01-04 23:45:00,
2014-01-04 19:00:00,32.6,24.0,30.03,SW,218,6.0,10.0,70,0.00,,,0.00,weatherlink.com 1.10,2014-01-05 00:00:00,
2014-01-04 19:15:00,32.7,24.0,30.03,SSW,198,4.0,8.0,70,0.00,,,0.00,weatherlink.com 1.10,2014-01-05 00:15:00,
2014-01-04 19:30:00,32.5,24.0,30.03,SSE,164,4.0,6.0,71,0.00,,,0.00,weatherlink.com 1.10,2014-01-05 00:30:00,
2014-01-04 19:45:00,32.2,24.0,30.04,South,183,2.0,5.0,72,0.00,,,0.00,weatherlink.com 1.10,2014-01-05 00:45:00,
2014-01-04 20:00:00,32.0,24.0,30.04,South,177,2.0,5.0,73,0.00,,,0.00,weatherlink.com 1.10,2014-01-05 01:00:00,
2014-01-04 20:15:00,31.9,24.0,30.04,South,190,2.0,5.0,73,0.00,,,0.00,weatherlink.com 1.10,2014-01-05 01:15:00,
2014-01-04 20:30:00,31.9,24.0,30.04,SSE,163,2.0,5.0,73,0.00,,,0.00,weatherlink.com 1.10,2014-01-05 01:30:00,
2014-01-04 20:45:00,31.9,24.0,30.04,SSE,163,3.0,6.0,73,0.00,,,0.00,weatherlink.com 1.10,2014-01-05 01:45:00,
2014-01-04 21:00:00,31.9,24.0,30.03,SSE,163,3.0,7.0,73,0.00,,,0.00,weatherlink.com 1.10,2014-01-05 02:00:00,
2014-01-04 21:30:00,31.9,24.0,30.04,South,172,2.0,7.0,73,0.00,,,0.00,weatherlink.com 1.10,2014-01-05 02:30:00,
2014-01-04 21:45:00,32.1,24.0,30.03,South,188,5.0,5.0,73,0.00,,,0.00,weatherlink.com 1.10,2014-01-05 02:45:00,
2014-01-04 22:00:00,32.2,24.0,30.03,South,174,3.0,6.0,72,0.00,,,0.00,weatherlink.com 1.10,2014-01-05 03:00:00,
2014-01-04 22:15:00,32.3,24.0,30.04,South,181,3.0,6.0,72,0.00,,,0.00,weatherlink.com 1.10,2014-01-05 03:15:00,
2014-01-04 22:45:00,32.2,24.0,30.03,SW,219,3.0,5.0,72,0.00,,,0.00,weatherlink.com 1.10,2014-01-05 03:45:00,
2014-01-04 23:15:00,32.2,24.0,30.03,SSW,203,3.0,4.0,72,0.00,,,0.00,weatherlink.com 1.10,2014-01-05 04:15:00,
2014-01-04 23:30:00,32.0,24.0,30.03,SSE,152,1.0,4.0,73,0.00,,,0.00,weatherlink.com 1.10,2014-01-05 04:30:00,
2014-01-04 23:45:00,31.8,24.0,30.03,SE,144,1.0,2.0,73,0.00,,,0.00,weatherlink.com 1.10,2014-01-05 04:45:00,